Terminal Aerodrome Forecast
Issued by NWS

Home | Current Version | Previous Version | Text Only | Print | Product List | Glossary On
Versions: 1 2 3 4 5 6 7 8 9 10 11 12 13 14 15 16 17 18 19 20 21 22 23 24 25 26 27 28 29 30 31 32 33 34 35 36 37 38 39 40 41 42 43 44 45 46 47 48 49 50
000
FTUS41 KCTP 221005 AAC
TAFJST
TAF AMD
KJST 221005Z 2210/2306 35008KT 6SM BR OVC005
     FM221300 32010KT 5SM BR VCSH OVC009
     FM221700 33010G16KT 6SM BR OVC012
     FM222000 33013G20KT P6SM OVC020=

USA.gov is the U.S. government's official web portal to all federal, state and local government web resources and services.